When you browse on this site, cookies collect data to enhance your experience and personalize the content and advertising you see.
Visit our Privacy Policy to learn more. By continuing to use the site, you agree to this use of cookies and data.
  • In Latvia
  • List of Countries
  • For 7 days
  • Water Temperature
  • Weather Map
  • Weather Widgets
  • user-avatar
    Login

    Hourly Weather Komarkov

    Today, 20 February, Thursday

    Time Temperature Precipitation Wind Pressure Humidity
    00:00 +2°C° 0 mm 2 mps 756 mmHg 81%
    01:00 +2°C° 0 mm 2 mps 756 mmHg 82%
    02:00 +2°C° 0 mm 2 mps 756 mmHg 83%
    03:00 +1°C° 0 mm 2 mps 756 mmHg 84%
    04:00 +1°C° 0 mm 2 mps 756 mmHg 85%
    05:00 +1°C° 0 mm 2 mps 756 mmHg 86%
    06:00 +1°C° 0 mm 2 mps 756 mmHg 88%
    07:00 0°C° 0 mm 3 mps 757 mmHg 85%
    08:00 +1°C° 0 mm 3 mps 757 mmHg 83%
    09:00 +1°C° 0 mm 3 mps 757 mmHg 81%
    10:00 +2°C° 0 mm 3 mps 757 mmHg 79%
    11:00 +3°C° 0 mm 3 mps 757 mmHg 78%
    12:00 +4°C° 0 mm 3 mps 757 mmHg 77%
    13:00 +5°C° 0 mm 3 mps 757 mmHg 75%
    14:00 +5°C° 0 mm 3 mps 757 mmHg 74%
    15:00 +7°C° 0 mm 3 mps 757 mmHg 73%
    16:00 +5°C° 0 mm 4 mps 757 mmHg 77%
    17:00 +4°C° 0 mm 4 mps 757 mmHg 81%
    18:00 +4°C° 0 mm 4 mps 757 mmHg 85%
    19:00 +3°C° 0.1 mm 4 mps 757 mmHg 86%
    20:00 +2°C° 0.1 mm 5 mps 758 mmHg 87%
    21:00 +2°C° 0.1 mm 5 mps 758 mmHg 88%
    22:00 +2°C° 0.2 mm 5 mps 758 mmHg 89%
    23:00 +2°C° 0.2 mm 5 mps 758 mmHg 89%

    Tomorrow, 21 February, Friday

    Time Temperature Precipitation Wind Pressure Humidity
    00:00 +1°C° 0.2 mm 4 mps 758 mmHg 90%
    01:00 +1°C° 0.2 mm 4 mps 758 mmHg 90%
    02:00 +1°C° 0.2 mm 4 mps 758 mmHg 90%
    03:00 +1°C° 0.2 mm 4 mps 758 mmHg 90%
    04:00 +1°C° 0 mm 5 mps 758 mmHg 90%
    05:00 +1°C° 0 mm 5 mps 758 mmHg 90%
    06:00 +1°C° 0 mm 5 mps 758 mmHg 90%
    07:00 +1°C° 0 mm 5 mps 758 mmHg 91%
    08:00 0°C° 0 mm 5 mps 759 mmHg 91%
    09:00 0°C° 0 mm 5 mps 759 mmHg 91%
    16:00 -1°C° 0.5 mm 4 mps 758 mmHg 96%
    17:00 -1°C° 0.5 mm 5 mps 758 mmHg 96%
    18:00 -1°C° 0.5 mm 5 mps 759 mmHg 96%
    19:00 -1°C° 0.3 mm 4 mps 759 mmHg 96%
    20:00 -1°C° 0.3 mm 4 mps 759 mmHg 95%
    21:00 -1°C° 0.3 mm 4 mps 759 mmHg 95%
    22:00 -1°C° 0.1 mm 4 mps 759 mmHg 94%
    23:00 0°C° 0.1 mm 4 mps 759 mmHg 93%

    Day after tomorrow, 22 February, Saturday

    Time Temperature Precipitation Wind Pressure Humidity
    00:00 0°C° 0.1 mm 4 mps 759 mmHg 92%
    01:00 0°C° 0 mm 5 mps 759 mmHg 93%
    02:00 -1°C° 0 mm 5 mps 759 mmHg 93%
    03:00 -1°C° 0 mm 5 mps 759 mmHg 93%
    04:00 -1°C° 0.4 mm 5 mps 759 mmHg 94%
    05:00 -1°C° 0.4 mm 5 mps 759 mmHg 96%
    06:00 -1°C° 0.4 mm 4 mps 759 mmHg 97%
    07:00 -1°C° 0.1 mm 4 mps 760 mmHg 96%
    08:00 -1°C° 0.1 mm 4 mps 760 mmHg 95%
    09:00 -1°C° 0.1 mm 5 mps 760 mmHg 94%
    10:00 0°C° 0 mm 4 mps 760 mmHg 90%
    11:00 +1°C° 0 mm 4 mps 761 mmHg 86%
    12:00 +3°C° 0 mm 4 mps 761 mmHg 82%
    13:00 +3°C° 0 mm 4 mps 761 mmHg 80%
    14:00 +4°C° 0 mm 4 mps 760 mmHg 78%
    15:00 +4°C° 0 mm 4 mps 760 mmHg 76%
    16:00 +4°C° 0.1 mm 4 mps 760 mmHg 79%
    17:00 +3°C° 0.1 mm 4 mps 760 mmHg 81%
    18:00 +3°C° 0.1 mm 4 mps 760 mmHg 84%
    19:00 +1°C° 0.1 mm 4 mps 760 mmHg 84%
    20:00 +1°C° 0.1 mm 4 mps 761 mmHg 85%
    21:00 +2°C° 0.1 mm 3 mps 761 mmHg 85%
    22:00 +2°C° 0 mm 3 mps 761 mmHg 85%
    23:00 +1°C° 0 mm 3 mps 760 mmHg 85%

    23 February, Sunday

    Time Temperature Precipitation Wind Pressure Humidity
    00:00 +1°C° 0 mm 3 mps 760 mmHg 85%
    01:00 +2°C° 0 mm 2 mps 760 mmHg 86%
    02:00 +2°C° 0 mm 2 mps 760 mmHg 87%
    03:00 +2°C° 0 mm 2 mps 760 mmHg 88%
    04:00 +1°C° 0 mm 2 mps 760 mmHg 91%
    05:00 +2°C° 0 mm 1 mps 760 mmHg 94%
    06:00 +2°C° 0 mm 1 mps 760 mmHg 97%
    07:00 +2°C° 0 mm 1 mps 760 mmHg 96%
    08:00 +1°C° 0 mm 0 mps 759 mmHg 96%
    09:00 +1°C° 0 mm 0 mps 759 mmHg 95%
    10:00 +3°C° 0 mm 1 mps 759 mmHg 91%
    11:00 +3°C° 0 mm 2 mps 759 mmHg 87%
    12:00 +3°C° 0 mm 3 mps 758 mmHg 83%
    13:00 +3°C° 0 mm 3 mps 758 mmHg 82%
    14:00 +3°C° 0 mm 4 mps 757 mmHg 81%
    15:00 +3°C° 0 mm 4 mps 756 mmHg 80%
    16:00 +3°C° 0 mm 4 mps 756 mmHg 79%
    17:00 +3°C° 0 mm 4 mps 756 mmHg 77%
    18:00 +3°C° 0 mm 3 mps 756 mmHg 76%
    19:00 +3°C° 0 mm 4 mps 755 mmHg 77%
    20:00 +2°C° 0 mm 5 mps 755 mmHg 77%
    21:00 +2°C° 0 mm 6 mps 755 mmHg 78%
    22:00 +1°C° 0 mm 6 mps 754 mmHg 79%
    23:00 0°C° 0 mm 7 mps 753 mmHg 81%

    24 February, Monday

    Time Temperature Precipitation Wind Pressure Humidity
    00:00 0°C° 0 mm 8 mps 753 mmHg 82%
    01:00 0°C° 0.2 mm 8 mps 752 mmHg 85%
    02:00 0°C° 0.2 mm 9 mps 751 mmHg 88%
    03:00 0°C° 0.2 mm 10 mps 751 mmHg 92%
    04:00 +1°C° 0.4 mm 10 mps 751 mmHg 92%
    05:00 +1°C° 0.4 mm 10 mps 750 mmHg 92%
    06:00 +1°C° 0.4 mm 10 mps 750 mmHg 92%
    07:00 +1°C° 0.4 mm 9 mps 750 mmHg 92%
    08:00 +1°C° 0.4 mm 8 mps 750 mmHg 92%
    09:00 +2°C° 0.4 mm 6 mps 750 mmHg 92%
    10:00 +2°C° 0.9 mm 7 mps 750 mmHg 93%
    11:00 +2°C° 0.9 mm 7 mps 750 mmHg 93%
    12:00 +2°C° 0.9 mm 7 mps 749 mmHg 94%
    13:00 +2°C° 0.7 mm 7 mps 749 mmHg 94%
    14:00 +2°C° 0.7 mm 7 mps 748 mmHg 95%
    15:00 +1°C° 0.7 mm 6 mps 747 mmHg 95%
    16:00 +1°C° 0.9 mm 5 mps 747 mmHg 96%
    17:00 +1°C° 0.9 mm 4 mps 747 mmHg 96%
    18:00 +2°C° 0.9 mm 3 mps 747 mmHg 97%
    19:00 +3°C° 0.6 mm 4 mps 746 mmHg 96%
    20:00 +2°C° 0.6 mm 5 mps 746 mmHg 95%
    21:00 +2°C° 0.6 mm 6 mps 746 mmHg 94%
    22:00 +2°C° 1.1 mm 7 mps 746 mmHg 94%
    23:00 +2°C° 1.1 mm 7 mps 745 mmHg 93%

    25 February, Tuesday

    Time Temperature Precipitation Wind Pressure Humidity
    00:00 +2°C° 1.1 mm 8 mps 745 mmHg 93%
    01:00 +1°C° 0.5 mm 8 mps 745 mmHg 92%
    02:00 +1°C° 0.5 mm 8 mps 745 mmHg 91%
    03:00 +2°C° 0.5 mm 7 mps 744 mmHg 90%
    04:00 +2°C° 0.7 mm 7 mps 744 mmHg 90%
    05:00 +2°C° 0.7 mm 6 mps 745 mmHg 91%
    06:00 +2°C° 0.7 mm 6 mps 745 mmHg 91%
    07:00 +2°C° 0.1 mm 7 mps 745 mmHg 87%
    08:00 +3°C° 0.1 mm 7 mps 746 mmHg 84%
    09:00 +2°C° 0.1 mm 8 mps 746 mmHg 80%
    10:00 +4°C° 0 mm 8 mps 746 mmHg 75%
    11:00 +4°C° 0 mm 8 mps 747 mmHg 71%
    12:00 +4°C° 0 mm 8 mps 747 mmHg 66%
    13:00 +4°C° 0 mm 7 mps 747 mmHg 71%
    14:00 +3°C° 0 mm 6 mps 747 mmHg 77%
    15:00 +3°C° 0 mm 6 mps 747 mmHg 82%
    16:00 +3°C° 0.2 mm 5 mps 748 mmHg 85%
    17:00 +2°C° 0.2 mm 5 mps 748 mmHg 87%
    18:00 +2°C° 0.2 mm 5 mps 748 mmHg 89%
    19:00 +2°C° 0.1 mm 5 mps 749 mmHg 89%
    20:00 +2°C° 0.1 mm 5 mps 750 mmHg 89%
    21:00 +2°C° 0.1 mm 5 mps 750 mmHg 89%
    22:00 +3°C° 0.1 mm 4 mps 750 mmHg 90%
    23:00 +3°C° 0.1 mm 4 mps 751 mmHg 91%
    Show more